Temp
85 88 91 83 68 70 75 77 81 81 82 92 90 84 80 81 76 64 79 87 85 84 83 84 83 83 83 83 83 83 83 83 83 83 84 84 83 83 84 84 84 84 84 85 85 85 84 84 83
92 92 85 75 63 69 68 82 79 84 89 91 86 85 81 75 85 83 84 88 90 88 87 85 82 83 83 83 83 83 83 83 84 84 84 83 84 84 84 84 84 84 85 85 85 85 84 84 83
88 93 76 67 74 70 73 84 85 89 90 90 84 89 84 79 89 88 90 90 89 88 87 84 83 83 82 83 83 83 83 83 84 84 84 84 84 84 85 85 84 84 85 85 85 85 84 83 83
90 81 82 73 73 82 83 87 89 89 92 88 87 81 89 92 89 93 94 91 89 88 87 84 83 82 82 83 82 83 83 83 84 83 84 84 84 84 84 84 84 85 85 85 85 85 84 83 83
85 80 72 80 80 86 89 90 87 86 89 83 85 78 81 90 94 96 96 91 89 88 86 85 82 83 83 83 83 83 83 84 84 84 84 84 84 84 84 84 85 84 84 84 85 85 84 84 84
69 71 72 75 79 86 90 94 92 89 89 86 81 79 81 92 92 95 93 92 93 89 87 86 83 83 83 83 83 84 84 84 84 84 84 84 84 84 84 84 84 85 84 85 85 84 84 84 84
63 66 76 79 80 81 87 94 90 90 88 86 87 76 84 89 94 96 94 91 94 92 88 86 85 84 84 84 84 83 84 84 84 84 84 84 84 84 84 84 84 85 85 85 85 85 84 84 84
84 69 73 72 78 79 90 92 95 91 87 96 93 78 77 89 96 97 88 90 91 92 90 88 85 86 84 85 84 84 84 84 84 84 84 84 85 85 85 83 84 85 85 85 85 85 85 84 84
78 65 64 72 80 83 93 88 93 96 91 93 92 89 91 95 97 95 92 93 92 92 88 90 86 85 85 85 85 84 84 84 85 85 84 84 83 88 87 84 85 85 85 86 86 86 85 84 84
63 61 73 89 90 87 92 91 90 89 88 88 88 93 94 95 94 92 90 88 90 92 92 89 91 90 89 91 84 84 85 85 84 85 83 83 83 88 91 87 85 85 85 86 85 85 85 85 89
68 77 88 90 93 95 92 91 89 85 84 88 85 87 91 92 92 91 91 92 92 93 92 91 84 90 92 88 87 88 86 87 88 88 83 85 88 86 88 86 87 85 85 88 88 93 90 89 91
84 90 90 90 92 92 88 94 91 91 90 94 91 91 91 91 92 92 92 92 93 94 91 92 90 85 91 90 88 91 83 87 88 88 90 87 87 85 85 85 89 88 91 90 88 91 91 93 94
85 89 91 92 90 87 88 88 89 89 94 95 93 91 90 92 93 94 96 95 94 93 92 89 87 82 85 89 88 87 85 88 86 87 89 87 84 87 88 88 89 89 87 91 87 89 90 90 94
89 91 88 89 89 87 82 85 88 90 94 91 90 90 91 92 94 94 94 94 93 94 92 93 90 87 87 86 85 86 87 85 85 88 88 89 87 87 87 87 88 90 86 89 90 88 87 88 94
83 83 83 84 85 85 87 76 73 91 93 89 90 90 92 93 94 92 94 93 94 94 94 91 90 90 87 82 88 88 84 90 88 87 87 90 88 88 87 88 88 89 87 89 87 88 88 90 94
84 74 63 80 85 80 75 67 78 92 91 88 89 91 91 93 94 94 95 94 94 94 91 90 94 90 87 87 87 87 84 86 90 89 87 89 88 87 88 87 88 89 89 88 90 89 88 89 89
71 72 74 77 88 83 77 65 88 93 91 88 89 90 91 91 93 94 95 95 95 93 90 89 87 89 87 86 87 88 85 88 90 90 89 87 89 90 87 88 88 89 87 89 90 86 88 88 88
73 78 81 77 85 86 83 81 88 91 92 89 90 90 90 91 92 94 95 96 95 93 90 89 90 86 85 85 86 87 88 88 90 90 90 87 88 88 87 88 88 88 87 88 87 87 87 87 87
86 84 82 84 87 83 85 85 86 90 91 90 90 90 90 91 95 95 95 95 95 93 88 87 86 84 85 84 84 85 85 87 88 90 85 87 88 89 87 87 88 88 85 86 89 86 85 85 88
86 83 83 87 88 86 84 84 90 89 90 92 91 90 91 93 93 93 93 94 94 91 88 86 85 84 85 85 84 85 86 88 90 90 88 88 89 87 87 85 85 86 87 86 87 87 84 85 88
86 83 83 83 87 90 87 80 85 88 93 94 94 94 94 93 93 92 91 92 94 90 88 86 85 84 84 85 86 84 86 86 84 87 87 88 87 88 86 86 85 86 88 85 86 86 84 82 83
80 88 86 84 81 74 90 72 83 86 88 91 94 94 94 94 95 93 92 92 93 92 91 87 86 84 84 84 84 81 83 82 85 86 88 87 87 87 88 87 86 86 87 85 84 88 86 85 81
82 88 84 83 80 80 81 77 83 88 85 87 92 88 93 96 96 95 95 93 95 95 92 89 85 85 85 84 83 85 83 85 87 86 84 85 84 87 88 87 87 85 85 85 85 84 81 85 83
88 83 83 84 81 70 79 79 80 84 84 85 82 80 85 79 87 98 97 96 95 97 96 91 84 83 84 84 84 82 82 83 86 85 87 86 86 86 85 87 85 85 86 85 85 85 81 83 83
85 80 70 68 69 69 85 80 81 88 91 90 87 87 87 75 92 90 87 95 94 94 95 93 85 82 84 85 84 83 83 83 82 85 86 85 86 86 84 84 84 85 85 85 85 84 85 84 83
80 79 69 60 66 71 83 75 76 89 93 93 93 93 94 95 96 96 95 88 91 96 94 94 87 83 84 84 84 84 83 86 86 85 87 87 88 88 85 84 85 85 85 85 84 85 84 85 84
78 74 83 74 77 72 79 79 85 89 89 90 90 90 90 92 93 93 96 96 94 85 84 95 91 85 85 85 84 83 83 83 85 85 86 88 86 92 86 84 84 85 85 85 83 85 84 84 83
80 84 72 75 61 61 72 76 76 79 83 87 87 87 88 90 92 93 93 94 94 95 92 86 94 89 87 87 86 85 85 84 84 85 84 85 87 86 89 85 85 85 85 84 84 85 84 83 85
78 75 76 78 74 64 64 70 83 81 84 84 86 86 87 88 90 90 92 93 92 93 92 88 90 91 88 87 86 85 85 85 85 85 86 86 86 87 85 84 84 84 84 84 83 82 83 83 83
81 76 77 68 66 73 71 71 88 86 87 87 86 86 87 88 89 89 90 89 88 88 88 86 85 86 91 87 86 86 87 86 86 84 85 87 86 87 87 86 85 85 84 84 83 83 85 83 83
MSLP
1007.29 1006.58 1006.08 1005.52 1005.84 1003.94 1002.22 1001.87 1001.92 1001.65 1002.13 1002.56 1003.71 1004.35 1005.77 1006.84 1007.30 1010.33 1012.31 1012.67 1013.41 1014.16 1014.70 1014.94 1015.19 1015.30 1015.55 1015.84 1016.09 1016.18 1016.37 1016.43 1016.32 1016.34 1016.36 1016.31 1016.43 1016.54 1016.62 1016.69 1016.85 1016.98 1016.88 1016.89 1016.98 1016.99 1017.05 1017.04 1017.02
1006.35 1004.92 1005.61 1005.12 1004.50 1002.74 1002.11 1001.62 1001.76 1001.89 1002.53 1003.21 1004.59 1005.20 1006.16 1007.53 1008.26 1009.91 1011.36 1012.44 1012.65 1013.54 1014.36 1015.04 1015.44 1015.47 1015.67 1015.94 1016.24 1016.37 1016.66 1016.62 1016.71 1016.68 1016.69 1016.65 1016.77 1016.84 1016.84 1016.95 1017.13 1017.29 1017.26 1017.19 1017.18 1017.22 1017.27 1017.26 1017.28
1007.13 1006.16 1005.80 1004.74 1002.76 1001.48 1001.26 1001.37 1001.63 1002.20 1002.78 1002.97 1004.45 1005.32 1006.60 1007.78 1008.44 1009.59 1011.29 1012.19 1012.92 1013.56 1014.47 1015.33 1015.55 1015.63 1015.80 1016.10 1016.42 1016.62 1016.95 1016.89 1016.87 1016.97 1016.98 1017.03 1017.08 1017.16 1017.26 1017.30 1017.49 1017.50 1017.33 1017.33 1017.43 1017.51 1017.52 1017.59 1017.52
1006.67 1006.64 1005.67 1002.93 1001.82 1001.19 1000.98 1001.13 1001.52 1001.90 1002.60 1004.03 1004.93 1006.29 1007.17 1007.83 1009.01 1009.98 1010.82 1012.06 1013.01 1013.73 1014.74 1015.44 1015.68 1015.86 1016.14 1016.38 1016.66 1016.73 1017.00 1017.17 1017.17 1017.22 1017.21 1017.30 1017.37 1017.44 1017.60 1017.61 1017.71 1017.62 1017.59 1017.58 1017.61 1017.75 1017.67 1017.78 1017.72
1006.47 1005.90 1004.34 1001.83 1001.28 1000.84 1000.87 1001.21 1002.27 1002.14 1003.00 1004.79 1005.73 1007.23 1007.94 1008.60 1009.65 1010.17 1010.68 1012.18 1012.97 1014.03 1014.99 1015.60 1015.96 1016.13 1016.33 1016.59 1016.68 1016.89 1017.20 1017.29 1017.41 1017.57 1017.45 1017.52 1017.66 1017.79 1017.79 1017.88 1017.90 1017.85 1017.88 1017.81 1017.78 1017.90 1017.85 1017.82 1017.70
1006.17 1006.34 1004.20 1002.14 1001.42 1001.06 1000.88 1000.97 1001.47 1002.27 1003.43 1005.09 1006.77 1007.70 1008.58 1009.38 1009.78 1010.14 1011.02 1011.93 1012.49 1013.93 1014.94 1015.65 1016.18 1016.35 1016.52 1016.78 1016.97 1017.14 1017.35 1017.47 1017.64 1017.56 1017.65 1017.77 1017.83 1018.01 1017.97 1018.08 1018.15 1018.12 1018.08 1018.00 1018.00 1017.97 1017.90 1017.71 1017.62
1006.76 1006.74 1003.87 1002.33 1001.66 1001.56 1001.30 1001.12 1001.59 1002.28 1003.24 1004.53 1006.40 1007.73 1008.73 1009.25 1009.69 1010.03 1011.10 1011.81 1012.37 1013.41 1014.82 1015.62 1016.22 1016.50 1016.63 1016.85 1017.03 1017.31 1017.41 1017.65 1017.66 1017.70 1017.75 1017.89 1017.90 1018.04 1018.12 1018.29 1018.26 1018.19 1018.04 1017.95 1017.95 1017.95 1017.80 1017.57 1017.51
1003.72 1005.77 1004.70 1003.29 1002.01 1001.83 1001.79 1001.74 1001.85 1002.61 1003.81 1004.47 1005.59 1007.43 1008.49 1009.06 1009.47 1010.01 1011.50 1011.76 1012.23 1013.07 1014.15 1015.12 1016.03 1016.34 1016.60 1016.94 1017.12 1017.32 1017.50 1017.64 1017.69 1017.76 1017.87 1017.90 1017.86 1018.14 1018.23 1018.37 1018.35 1018.14 1017.88 1017.69 1017.84 1017.88 1017.83 1017.71 1017.49
1006.53 1006.78 1005.02 1003.28 1001.91 1001.81 1001.54 1002.28 1003.19 1003.70 1004.06 1004.58 1005.64 1006.86 1008.02 1008.75 1009.29 1009.97 1011.12 1011.51 1012.19 1013.08 1013.99 1014.60 1015.72 1016.06 1016.39 1016.85 1017.16 1017.36 1017.60 1017.69 1017.65 1017.83 1017.94 1018.16 1018.10 1017.88 1018.23 1018.38 1018.19 1018.00 1017.68 1017.55 1017.63 1017.79 1017.76 1017.75 1017.58
1009.07 1007.51 1004.23 1002.41 1001.75 1001.77 1001.54 1002.13 1003.03 1003.57 1004.43 1004.98 1006.06 1007.15 1008.23 1008.77 1009.30 1009.78 1010.61 1011.52 1012.03 1012.59 1013.20 1014.16 1014.70 1015.26 1015.86 1016.20 1017.09 1017.34 1017.58 1017.60 1017.55 1017.63 1017.84 1017.86 1017.83 1017.58 1017.97 1018.11 1017.97 1017.77 1017.58 1017.44 1017.19 1017.59 1017.45 1017.52 1017.20
1007.39 1005.11 1003.38 1002.51 1002.10 1001.65 1001.90 1002.23 1003.43 1003.61 1003.86 1005.00 1006.32 1007.45 1008.32 1008.91 1009.36 1009.92 1010.30 1010.95 1011.51 1012.10 1012.66 1013.70 1014.75 1014.91 1015.13 1015.92 1016.49 1016.55 1017.00 1017.19 1017.22 1017.47 1017.47 1017.62 1017.49 1017.87 1017.76 1017.92 1017.75 1017.65 1017.39 1017.15 1016.65 1016.04 1016.63 1016.86 1016.64
1003.44 1003.33 1003.34 1002.74 1002.67 1002.55 1002.88 1002.65 1003.10 1003.82 1004.23 1005.18 1006.71 1007.67 1008.23 1008.74 1009.08 1009.53 1010.03 1010.71 1011.23 1011.74 1012.85 1013.64 1014.21 1014.89 1014.90 1015.49 1015.68 1015.71 1016.64 1016.79 1017.05 1017.32 1017.18 1017.36 1017.46 1017.55 1017.63 1017.75 1017.19 1017.15 1016.79 1016.57 1016.51 1016.38 1016.20 1016.22 1016.29
1003.08 1002.91 1003.22 1003.06 1003.56 1004.09 1003.99 1003.69 1003.83 1004.51 1005.13 1005.97 1006.95 1007.79 1008.24 1008.46 1008.84 1009.29 1009.60 1010.34 1010.89 1011.74 1012.50 1013.33 1014.33 1015.17 1015.34 1015.29 1015.50 1015.80 1016.08 1016.39 1016.87 1017.16 1017.35 1017.42 1017.64 1017.32 1017.17 1017.34 1017.32 1016.97 1017.02 1016.72 1016.91 1016.67 1016.47 1016.42 1016.18
1002.64 1002.74 1003.75 1003.93 1004.00 1004.73 1004.84 1004.48 1004.47 1005.04 1005.65 1006.35 1007.12 1007.65 1008.04 1008.21 1008.57 1009.16 1009.49 1009.97 1010.85 1011.68 1012.49 1013.34 1014.14 1014.96 1015.23 1015.64 1015.69 1015.87 1016.08 1016.36 1016.59 1016.88 1017.35 1017.35 1017.43 1017.52 1017.55 1017.57 1017.34 1017.15 1017.33 1017.18 1017.02 1016.76 1016.54 1016.30 1016.13
1002.87 1003.61 1004.81 1004.74 1004.76 1004.68 1004.79 1005.22 1005.54 1004.94 1005.73 1006.47 1006.99 1007.40 1007.74 1008.05 1008.47 1009.06 1009.59 1010.14 1010.72 1011.56 1012.25 1013.31 1014.05 1014.46 1015.36 1015.87 1015.83 1015.93 1016.10 1016.12 1016.33 1017.00 1017.39 1017.48 1017.61 1017.57 1017.54 1017.37 1017.27 1017.19 1017.42 1017.36 1017.17 1016.73 1016.51 1016.26 1015.92
1002.69 1004.39 1004.91 1004.92 1004.69 1005.76 1005.33 1005.25 1005.36 1004.89 1005.44 1006.15 1006.60 1007.00 1007.43 1007.81 1008.28 1008.93 1009.56 1010.23 1010.84 1011.42 1012.29 1013.21 1013.64 1014.58 1015.38 1015.77 1015.84 1015.84 1016.07 1016.00 1016.18 1016.73 1017.36 1017.44 1017.66 1017.64 1017.51 1017.40 1017.22 1017.19 1017.23 1017.12 1016.77 1016.64 1016.52 1016.33 1016.27
1004.05 1003.17 1003.58 1004.16 1003.98 1004.52 1005.15 1004.97 1003.92 1004.52 1004.81 1005.48 1006.03 1006.52 1006.97 1007.49 1008.02 1008.71 1009.45 1010.12 1010.77 1011.40 1012.22 1013.02 1013.50 1014.33 1015.20 1015.54 1015.74 1015.71 1015.82 1015.95 1015.94 1016.26 1016.88 1017.45 1017.55 1017.51 1017.49 1017.22 1017.24 1017.31 1017.41 1016.95 1017.04 1017.12 1016.87 1016.85 1016.56
1001.91 1001.72 1002.32 1002.70 1003.24 1003.58 1003.35 1003.06 1003.16 1003.79 1003.93 1004.51 1005.32 1005.96 1006.41 1006.85 1007.56 1008.41 1009.07 1009.83 1010.48 1011.34 1012.26 1012.99 1013.64 1014.13 1014.83 1015.56 1015.69 1015.75 1015.92 1015.98 1015.85 1015.88 1016.26 1017.03 1017.24 1017.37 1017.39 1017.30 1017.25 1017.33 1017.39 1017.17 1017.41 1017.45 1017.33 1017.13 1016.93
1001.05 1000.77 1000.85 1001.89 1002.57 1002.73 1001.99 1001.94 1002.16 1002.77 1003.17 1003.46 1004.20 1005.03 1005.67 1006.12 1006.85 1007.88 1008.73 1009.47 1010.11 1011.09 1012.15 1013.09 1013.61 1014.23 1014.78 1015.40 1015.68 1015.64 1015.77 1016.05 1015.82 1015.59 1016.40 1016.61 1016.83 1017.15 1017.21 1017.30 1017.10 1017.28 1017.52 1017.46 1017.64 1017.76 1017.68 1017.34 1016.86
1000.86 1000.57 1000.23 1000.73 1001.64 1001.82 1001.64 1001.23 1000.59 1001.60 1002.15 1002.43 1003.07 1003.96 1004.79 1005.49 1006.21 1007.26 1008.27 1009.03 1009.70 1010.71 1011.77 1012.80 1013.47 1014.08 1014.61 1015.04 1015.42 1015.39 1015.42 1015.46 1015.30 1015.29 1015.70 1016.25 1016.64 1016.97 1017.16 1017.24 1017.38 1017.21 1017.29 1017.48 1017.79 1017.82 1017.87 1017.56 1017.05
1000.79 1000.55 1000.29 1000.30 1000.80 1000.81 1000.44 1000.64 1000.24 1000.61 1001.09 1001.38 1002.13 1002.97 1003.99 1004.64 1005.45 1006.60 1007.71 1008.48 1009.30 1010.28 1011.35 1012.32 1013.08 1013.71 1014.32 1014.79 1015.01 1015.16 1015.06 1015.13 1015.24 1015.01 1015.55 1015.88 1016.31 1016.65 1016.96 1016.97 1017.12 1017.25 1017.07 1017.47 1017.71 1017.69 1017.58 1017.59 1017.44
1000.98 1001.11 1001.07 1000.93 1001.01 1000.18 999.41 999.07 998.93 999.70 999.85 1001.07 1001.45 1002.01 1002.93 1003.72 1004.70 1005.67 1006.84 1007.84 1008.58 1009.58 1010.71 1011.80 1012.76 1013.41 1013.95 1014.30 1014.52 1014.63 1014.81 1015.03 1014.93 1014.90 1015.14 1015.58 1015.92 1016.41 1016.56 1016.70 1016.77 1016.98 1016.93 1017.32 1017.46 1017.52 1017.54 1017.53 1017.42
1001.57 1001.93 1002.05 1001.66 1001.15 1000.50 999.64 999.07 998.11 998.87 999.50 1000.33 1000.79 1002.38 1002.80 1002.60 1003.64 1004.64 1005.70 1006.88 1007.87 1008.75 1009.82 1010.91 1012.13 1012.96 1013.55 1013.95 1014.18 1014.21 1014.48 1014.54 1014.56 1014.76 1014.81 1014.98 1015.58 1015.89 1016.30 1016.54 1016.58 1016.85 1016.95 1017.03 1017.27 1017.25 1017.47 1017.50 1017.48
1002.89 1002.70 1002.16 1001.51 1000.93 1000.06 999.19 998.81 998.04 998.06 998.96 1000.46 1002.24 1003.61 1004.86 1004.69 1004.68 1003.39 1004.19 1005.46 1006.73 1007.79 1008.83 1010.04 1011.33 1012.26 1013.02 1013.57 1013.72 1014.07 1014.02 1014.12 1014.04 1014.26 1014.36 1014.71 1015.22 1015.55 1015.77 1015.98 1016.32 1016.44 1016.56 1016.77 1016.94 1017.04 1017.28 1017.45 1017.50
1002.81 1002.20 1001.21 1000.37 999.83 998.72 997.73 998.11 998.15 998.53 999.45 1000.83 1002.68 1003.59 1004.34 1005.70 1004.51 1004.10 1005.80 1004.66 1005.60 1006.62 1007.65 1008.82 1010.24 1011.24 1012.01 1012.72 1013.26 1013.58 1013.69 1013.80 1013.85 1013.72 1013.71 1014.07 1014.46 1014.95 1015.30 1015.73 1015.93 1016.17 1016.06 1016.28 1016.46 1016.84 1016.98 1017.18 1017.38
1002.98 1002.79 1002.07 1000.71 999.43 998.77 998.00 997.97 999.82 1000.04 1000.56 1001.42 1002.53 1003.47 1004.20 1004.44 1004.60 1004.71 1005.18 1006.26 1005.78 1006.20 1006.72 1007.58 1008.86 1010.09 1010.89 1011.63 1012.35 1012.96 1013.36 1013.34 1013.47 1013.56 1013.28 1013.23 1013.46 1013.75 1014.34 1014.89 1015.19 1015.49 1015.65 1015.88 1016.25 1016.53 1016.69 1016.84 1016.98
1003.41 1003.13 1002.87 1001.94 1000.82 1000.00 998.76 999.48 1000.29 1000.54 1001.46 1002.29 1003.10 1003.98 1004.77 1005.06 1005.10 1005.45 1005.61 1005.95 1006.72 1007.71 1008.17 1007.22 1007.53 1008.75 1009.55 1010.38 1011.09 1011.88 1012.60 1012.95 1012.80 1013.01 1013.07 1013.03 1013.01 1012.95 1013.32 1013.97 1014.49 1014.84 1015.11 1015.35 1015.86 1016.14 1016.15 1016.26 1016.36
1004.43 1004.16 1003.52 1002.36 1001.77 1000.86 999.87 999.26 999.09 1000.22 1001.50 1002.57 1003.48 1004.42 1005.28 1005.78 1005.90 1006.26 1006.58 1006.83 1007.22 1007.26 1007.52 1008.01 1007.05 1007.42 1008.09 1008.91 1009.83 1010.67 1011.37 1012.11 1012.54 1012.50 1012.58 1012.61 1012.71 1012.81 1012.95 1013.33 1013.84 1014.30 1014.70 1015.10 1015.41 1015.58 1015.68 1015.74 1015.69
1004.20 1004.21 1004.15 1003.66 1003.26 1002.24 1001.15 1000.74 1001.03 1001.66 1002.56 1003.41 1004.30 1005.40 1006.12 1006.62 1006.85 1007.20 1007.53 1007.67 1007.82 1007.92 1008.11 1008.24 1007.60 1006.67 1007.00 1007.86 1008.66 1009.54 1010.34 1011.15 1011.83 1012.09 1012.04 1012.24 1012.38 1012.54 1012.57 1013.29 1013.53 1013.82 1014.14 1014.49 1014.90 1015.05 1014.98 1014.94 1015.11
1004.82 1004.89 1004.88 1004.22 1003.75 1003.15 1002.85 1001.82 1001.95 1002.82 1003.61 1004.41 1005.22 1006.34 1007.09 1007.56 1007.76 1008.01 1008.30 1008.77 1008.87 1008.97 1008.80 1008.83 1008.34 1007.10 1005.93 1006.57 1007.39 1008.20 1009.04 1009.93 1010.70 1011.24 1011.49 1011.60 1011.90 1012.03 1012.21 1012.43 1012.87 1013.21 1013.51 1013.84 1014.17 1014.40 1014.37 1014.43 1014.55
Wind_Speed
8 12 9 3 5 6 16 17 25 19 18 18 21 21 19 11 8 15 16 21 24 18 13 11 10 11 10 10 11 10 10 11 12 12 12 15 15 16 17 16 15 15 15 15 14 14 13 15 13
8 16 2 1 3 13 6 14 14 20 16 21 18 26 22 26 24 21 17 21 19 18 14 12 11 11 11 12 13 12 11 11 11 11 12 15 15 14 16 17 16 14 15 14 15 15 12 12 12
12 7 3 4 6 11 13 18 15 14 9 17 21 22 16 22 21 21 26 18 21 16 16 12 12 12 13 16 15 13 12 12 11 12 14 14 14 14 15 16 14 13 14 14 14 14 13 12 10
5 2 8 1 16 16 15 15 14 12 17 14 19 17 20 22 24 21 26 25 19 18 16 13 15 18 20 19 18 16 12 10 12 12 14 15 14 14 13 14 13 13 13 12 12 12 13 11 8
5 3 7 13 18 17 15 12 12 14 16 22 21 21 15 24 23 20 19 23 21 19 16 14 17 18 17 17 16 14 11 10 12 12 12 14 13 11 12 13 13 12 12 12 11 10 11 9 7
5 2 5 12 15 18 11 13 15 17 14 24 22 17 18 21 20 18 20 18 17 19 17 14 15 16 17 15 14 14 11 11 11 11 12 12 12 11 11 10 10 10 9 9 8 9 8 7 6
8 3 6 11 17 15 9 10 13 12 16 20 23 20 16 20 17 18 17 16 20 21 16 14 14 15 16 14 13 16 10 10 10 10 10 10 11 11 11 9 8 7 5 5 6 6 6 5 4
10 3 15 5 13 16 10 13 12 17 15 19 21 15 17 18 18 18 14 12 18 19 18 15 13 12 11 11 13 13 10 10 9 9 9 10 13 11 12 9 5 3 4 6 7 6 5 5 6
9 6 4 4 16 12 15 16 15 14 12 9 21 19 25 21 19 21 18 13 12 17 17 16 15 14 11 11 10 11 12 10 9 8 7 7 4 9 9 6 5 6 9 9 8 8 8 8 9
5 3 8 10 13 10 11 18 12 14 13 13 23 22 19 19 17 17 17 14 16 15 16 18 16 14 14 12 11 10 9 7 5 6 4 5 4 6 8 7 9 10 11 10 12 9 11 11 7
11 3 9 10 9 12 14 7 20 5 17 15 20 21 20 18 16 16 15 16 15 14 11 20 12 13 12 11 9 6 6 6 4 3 6 6 5 5 6 3 5 5 11 6 7 1 8 9 8
4 7 12 7 9 8 5 6 13 12 13 18 21 21 19 18 17 15 16 14 16 14 19 21 16 7 8 8 6 7 7 6 6 4 0 2 2 5 4 4 3 3 1 4 4 3 5 6 4
4 7 9 7 15 14 9 10 11 11 15 18 21 20 19 17 16 13 15 16 14 12 16 14 16 10 5 4 3 3 3 8 8 6 2 3 3 2 1 3 2 3 3 3 5 3 2 4 4
4 11 11 6 12 7 3 2 6 13 15 18 18 19 18 17 15 14 13 12 15 12 16 15 15 11 6 5 3 0 3 5 5 7 4 5 2 1 3 2 3 0 4 4 1 3 5 3 5
19 12 8 3 2 5 3 4 7 15 15 16 17 16 16 15 15 15 12 11 13 11 14 14 12 10 8 6 4 3 3 5 3 8 5 2 3 2 4 2 2 3 2 4 5 5 7 5 5
8 8 4 7 6 9 10 3 17 14 16 16 16 15 14 14 15 15 12 12 10 13 12 13 13 13 10 7 5 4 4 4 4 7 6 4 4 5 3 3 3 3 2 4 2 4 4 4 4
5 4 10 10 7 12 9 11 14 15 16 15 15 15 14 14 14 13 14 13 13 11 11 11 8 15 14 7 7 6 5 2 4 6 8 7 5 5 5 4 4 1 4 2 3 4 4 1 4
6 3 8 12 12 7 8 11 14 17 16 17 15 14 14 15 15 15 16 14 15 12 12 10 7 12 11 8 4 5 5 3 4 4 8 11 7 7 5 4 5 2 4 1 3 4 4 4 4
11 6 4 13 7 4 5 1 15 16 14 15 16 16 15 15 15 17 15 14 15 13 14 10 10 9 9 8 6 6 6 6 6 5 12 10 6 6 5 5 4 4 4 4 1 2 5 5 2
10 10 10 13 10 7 3 11 12 20 17 16 15 17 16 15 17 17 15 14 14 15 14 13 11 11 9 7 7 6 7 8 8 5 8 9 6 8 6 6 4 6 3 5 3 2 3 3 2
10 11 13 5 4 12 11 10 15 19 18 17 17 17 17 17 17 17 16 15 14 15 14 14 12 13 10 10 7 5 4 2 3 5 7 6 8 6 7 6 6 4 1 4 4 4 6 3 2
12 11 10 9 9 11 11 6 12 15 18 13 14 18 20 18 17 18 18 15 15 16 16 15 13 13 13 12 9 6 7 6 5 3 8 9 9 9 7 7 6 4 3 2 5 4 2 1 4
7 12 9 11 12 14 14 8 7 17 13 20 21 7 8 19 20 21 20 18 16 15 17 16 16 13 13 12 10 9 9 9 7 7 7 9 10 9 9 8 6 5 4 4 5 3 3 2 3
9 12 15 15 13 11 14 12 11 11 10 13 15 13 4 5 17 18 20 20 17 15 15 17 18 16 13 13 13 10 12 10 8 10 8 7 9 9 9 9 8 5 6 5 4 3 6 4 3
9 13 10 9 9 12 16 11 5 14 19 21 17 16 18 17 12 5 11 16 18 18 17 16 20 18 18 15 15 13 11 12 11 5 7 10 8 9 11 9 9 8 6 5 5 5 4 5 4
8 8 7 8 9 11 9 4 12 16 17 18 15 15 14 14 14 15 9 3 0 14 18 16 21 20 19 19 17 14 13 9 9 8 7 6 9 9 13 13 10 10 8 7 6 5 6 5 5
6 4 14 9 13 10 7 20 17 18 16 14 14 14 12 10 12 13 14 15 9 2 8 14 16 22 22 21 17 16 14 14 11 11 9 6 7 7 12 16 15 12 11 9 9 7 6 7 5
8 11 8 5 4 7 10 8 4 20 16 13 13 14 12 11 12 11 12 12 12 13 13 16 13 19 23 21 18 16 16 15 14 10 12 10 7 9 4 15 15 13 12 12 9 10 10 8 6
7 8 7 10 8 10 10 8 17 17 14 11 13 13 12 10 10 11 12 13 13 15 16 17 17 19 22 21 18 17 16 16 15 14 11 11 10 8 8 11 12 13 12 11 11 11 9 8 9
7 12 12 9 8 9 10 11 18 15 12 7 11 9 8 9 10 10 10 13 14 14 14 16 18 21 16 21 19 19 17 17 17 17 16 12 12 11 9 8 11 11 12 12 12 13 12 12 10
Wind_Direction
226 224 229 293 242 246 114 85 37 83 75 69 99 73 83 96 63 102 142 128 142 134 139 131 125 125 129 136 112 107 97 88 80 82 88 85 85 87 91 91 87 81 82 86 85 83 83 90 83
257 247 332 268 262 104 94 103 130 79 100 80 71 83 78 90 103 124 127 130 129 132 123 117 120 120 125 133 120 118 107 97 88 86 85 91 93 88 88 87 87 90 85 82 80 81 81 71 83
268 281 286 195 143 74 78 84 79 93 136 97 80 69 97 111 115 114 123 125 112 115 113 117 113 111 119 128 121 110 105 100 93 90 92 93 92 88 84 85 87 86 84 80 83 79 78 75 78
281 0 239 319 69 75 87 109 125 106 93 124 100 86 83 100 109 124 125 123 125 116 111 115 105 112 118 119 123 106 101 100 103 99 97 96 93 89 91 90 85 78 75 84 88 83 82 84 89
185 225 269 84 80 84 98 89 137 112 80 90 99 94 90 101 122 130 124 119 121 116 119 115 116 116 116 119 120 115 110 102 102 101 97 94 94 92 89 85 82 78 72 74 94 96 93 93 95
348 19 257 95 96 78 73 85 79 80 87 102 98 108 106 117 131 144 116 123 130 115 116 124 122 124 123 122 122 120 107 110 108 108 103 104 101 97 92 92 89 85 79 86 99 105 107 102 105
170 238 91 89 79 74 58 102 88 113 115 120 111 118 129 140 142 124 115 141 123 124 122 134 135 131 128 129 132 134 111 118 120 119 122 123 118 113 106 100 96 90 97 119 116 122 134 131 148
47 316 105 275 96 95 84 59 51 78 78 118 128 138 134 145 142 135 140 167 133 139 135 139 136 135 131 138 137 140 129 133 145 143 143 153 131 129 122 125 113 141 203 203 175 163 157 189 214
3 20 344 353 105 126 120 90 85 116 132 73 96 148 142 152 147 138 148 125 122 122 146 138 143 161 148 134 137 137 149 162 165 155 160 186 119 132 145 100 173 215 238 243 213 187 196 209 235
18 316 189 108 106 84 87 115 133 127 117 108 119 118 137 142 157 139 142 153 147 149 152 142 144 151 152 147 161 157 168 176 199 166 188 217 255 117 131 168 210 227 239 256 263 224 210 206 210
185 128 89 80 90 100 83 60 98 291 130 133 134 136 152 153 157 155 157 154 152 158 152 133 138 167 165 140 186 174 160 152 163 88 188 212 136 135 169 166 223 234 234 245 225 307 197 185 199
110 125 110 127 71 92 78 159 62 57 76 121 140 145 150 164 162 165 155 157 152 161 137 145 142 121 137 172 174 173 156 185 148 144 263 24 216 187 222 173 214 257 100 313 54 40 340 109 61
107 94 107 89 86 48 2 45 93 94 103 124 141 153 159 172 159 170 159 158 147 149 131 139 126 140 180 166 122 44 95 125 124 148 238 188 249 12 23 72 317 5 335 45 32 7 307 323 115
171 101 91 111 70 90 63 317 66 117 127 133 150 161 169 168 168 163 164 160 144 158 128 127 132 138 158 81 122 84 118 149 165 138 156 267 103 208 93 221 224 203 37 19 30 290 301 293 135
65 99 103 34 85 115 306 65 293 141 139 146 160 167 171 167 173 163 172 165 155 165 141 137 141 145 134 128 160 216 193 170 134 100 131 271 84 293 265 216 215 139 137 236 273 241 257 268 138
125 84 178 149 202 99 80 264 217 159 151 158 163 169 169 170 173 166 168 164 165 171 146 155 163 156 149 176 199 215 236 165 161 143 146 179 214 208 251 195 240 106 261 219 273 282 7 31 327
178 177 156 139 222 150 118 284 147 169 169 165 170 173 177 172 173 166 170 174 170 166 152 157 155 158 157 167 192 221 161 283 165 162 157 177 208 211 269 264 125 154 281 289 351 15 18 335 283
97 261 121 136 157 202 211 204 159 174 190 169 177 178 182 177 179 169 177 181 163 156 152 159 184 152 153 160 209 213 142 214 251 195 159 169 183 203 228 256 109 271 285 63 48 33 333 313 316
297 306 133 129 154 219 301 224 166 174 196 180 176 180 186 185 176 163 184 179 169 168 157 179 173 149 157 159 203 200 179 199 236 192 140 162 174 199 211 271 157 191 257 101 9 338 277 281 89
306 307 306 142 171 212 196 295 202 174 190 197 182 177 187 184 170 164 177 179 181 167 162 169 177 160 171 184 191 217 201 195 206 201 151 162 187 179 219 240 259 195 230 141 203 277 296 288 65
273 277 315 325 154 218 233 196 262 168 182 201 187 176 184 183 178 171 174 181 182 166 168 170 180 172 181 197 192 212 172 262 280 180 158 168 170 215 206 215 242 330 175 181 200 226 264 327 295
276 24 341 345 301 285 315 253 184 172 183 184 199 179 178 185 183 168 172 185 185 170 170 173 183 177 184 212 194 173 189 214 215 242 176 175 183 193 210 235 223 235 261 223 209 229 205 222 299
306 8 324 299 283 279 269 260 273 174 185 197 199 126 198 176 176 177 180 177 193 186 173 175 177 189 192 206 228 188 206 200 199 215 237 165 178 188 215 211 218 204 229 259 251 125 30 292 260
307 294 268 253 251 257 252 253 268 191 62 119 99 127 12 348 301 182 173 172 181 190 183 176 174 185 199 194 219 236 196 234 211 200 195 184 176 188 200 207 210 218 214 226 258 186 178 243 311
228 251 266 234 214 237 223 213 113 111 117 106 128 137 136 171 180 114 336 176 176 186 190 180 175 184 187 202 207 215 234 218 245 238 209 177 194 187 196 209 197 209 206 220 219 242 235 205 225
331 328 308 320 335 345 44 85 90 85 89 94 93 76 59 46 43 27 56 111 329 193 189 192 175 185 189 194 201 210 223 226 227 240 233 218 189 202 182 191 209 202 204 205 232 242 210 220 214
22 286 343 313 289 273 277 108 126 128 126 115 101 85 63 43 42 29 7 21 62 312 331 213 187 187 190 191 196 201 205 224 225 218 232 212 235 218 180 187 196 200 208 203 211 228 231 231 219
252 331 307 232 281 268 278 258 284 148 135 111 88 77 54 27 24 23 5 357 4 356 343 332 231 191 190 192 193 198 201 209 223 231 226 224 230 237 252 184 191 200 202 209 217 217 222 233 223
174 237 209 263 288 307 302 82 60 92 108 100 73 56 37 19 16 14 354 1 349 349 341 336 323 290 188 191 190 196 201 205 212 228 231 229 222 235 228 187 195 199 204 207 212 230 240 234 217
309 305 304 295 289 260 271 292 108 114 117 111 89 81 47 0 5 13 3 354 352 342 340 342 335 332 190 187 192 192 197 202 210 216 226 221 227 219 235 203 195 202 202 208 214 220 230 236 236